Theta_e
314 314 313 314 313 313 313 312 312 312 312 312 312 312 312 312 312 313 313 314 314 315 315 316 317 317 317 317 317 317 316 312 311 311 308 311 317 323 321 325 327 325 325 308 306 303 301 302 303 306 303 301 299 298 302 302 303 301 294 291 289 290 292 297 297 297 298 297 299 300 302 300 300 303 306 307 305 307 310 310 314 316 316 317 317 319 319 320
314 313 314 314 313 313 313 312 312 312 312 312 311 311 312 313 312 313 313 314 314 315 315 316 316 317 317 317 317 317 314 312 310 310 310 317 325 324 326 325 327 325 321 304 302 301 300 300 302 303 300 296 303 298 304 299 305 296 293 292 289 292 296 300 300 301 299 297 300 301 301 301 301 301 304 301 301 303 306 309 312 312 315 316 317 317 317 318
314 313 313 314 313 313 313 312 312 312 312 312 312 312 312 312 312 313 313 314 315 315 316 316 316 317 317 317 317 317 313 309 311 309 314 323 324 326 327 327 327 329 304 302 302 302 301 302 303 302 299 296 298 297 301 298 301 298 295 289 291 297 299 301 302 301 301 301 300 300 301 301 301 301 304 301 300 302 302 305 309 310 311 313 315 316 317 317
314 314 314 313 313 313 312 312 312 312 312 312 312 312 312 312 313 313 314 314 315 315 315 316 316 316 317 317 318 315 312 310 306 310 314 326 324 327 329 327 328 325 311 303 303 303 305 306 305 302 299 296 297 300 297 299 297 297 295 291 294 298 296 299 302 301 302 303 301 300 301 300 301 302 302 300 298 299 301 309 309 309 311 313 315 316 317 316
314 313 313 313 313 312 313 312 312 312 312 312 312 312 313 313 312 313 314 315 315 315 316 316 316 316 316 317 317 314 308 302 299 304 319 325 324 326 327 327 327 309 305 306 306 305 305 304 304 302 298 293 297 297 297 300 302 303 295 298 299 299 297 300 302 302 301 301 302 301 299 299 305 303 301 300 295 296 299 306 312 312 313 313 314 315 316 317
313 313 313 313 313 313 313 313 313 313 312 312 312 312 312 313 313 314 314 315 315 315 316 316 316 316 317 317 314 311 305 286 303 303 323 325 325 327 326 328 325 316 308 306 305 305 304 304 302 297 295 295 295 294 297 300 303 293 296 298 299 300 298 302 302 301 301 301 300 300 302 302 302 301 302 301 299 302 309 307 312 314 315 315 316 315 315 316
314 314 313 313 313 313 313 313 313 312 312 312 312 312 313 313 313 314 314 315 315 315 316 315 316 316 316 316 313 309 304 306 312 313 328 328 327 329 333 330 323 308 307 304 304 303 304 302 301 298 297 296 297 297 300 300 302 297 293 297 299 301 299 301 301 301 300 300 299 301 304 301 300 299 302 300 303 308 312 313 314 315 315 315 314 315 315 315
313 314 314 313 313 313 313 313 313 313 312 312 313 313 313 313 314 314 315 315 315 315 315 315 315 316 316 312 308 305 304 303 310 314 328 329 331 331 325 314 309 306 304 303 303 303 304 301 299 301 297 294 297 298 301 299 300 296 296 299 300 301 300 300 299 300 301 300 299 302 300 299 300 299 301 299 303 308 312 313 313 313 314 314 313 314 315 315
313 313 313 313 313 314 313 313 313 313 312 312 313 313 313 313 314 314 314 314 314 315 315 315 315 316 317 311 305 303 303 313 311 312 328 323 321 323 312 308 309 306 305 305 305 305 304 301 301 302 295 297 301 299 299 298 293 298 298 301 300 300 302 300 301 301 301 301 302 299 299 300 301 302 300 300 302 304 311 312 312 313 312 312 313 314 314 315
313 313 313 313 313 313 313 313 313 313 313 313 313 313 313 313 313 313 314 314 314 315 315 315 316 316 312 308 306 298 305 311 310 313 317 311 312 313 311 310 309 308 306 306 306 305 304 303 302 304 302 300 301 298 300 298 294 300 299 300 299 300 302 300 299 300 299 302 301 298 298 299 301 301 293 302 302 304 308 310 312 311 311 312 313 314 315 316
313 313 313 313 313 313 314 314 314 313 314 314 313 313 313 313 313 314 314 314 314 315 315 316 316 315 309 310 302 300 310 309 309 310 312 309 309 308 309 310 311 308 308 308 307 309 306 306 305 305 303 297 300 297 298 298 301 301 301 300 298 300 301 300 300 300 298 298 299 299 296 299 299 300 294 300 302 304 302 307 309 309 310 312 313 313 315 315
313 313 313 313 313 313 313 313 314 314 314 314 314 313 313 313 313 314 314 314 315 315 315 316 316 313 312 308 303 303 313 309 310 310 309 308 309 310 310 311 312 312 310 305 305 306 306 306 305 303 295 303 294 299 298 301 301 299 299 295 296 298 298 299 298 299 299 297 299 300 297 294 296 294 298 301 302 302 302 301 308 308 309 311 311 312 313 312
312 313 313 313 313 313 313 313 314 314 314 314 314 314 314 314 313 313 314 314 315 315 316 316 316 313 310 302 307 316 318 313 310 310 309 309 309 309 310 309 308 307 307 305 305 307 308 306 305 301 303 300 298 293 299 301 299 300 300 295 295 294 293 298 300 299 298 299 299 299 285 286 293 296 298 301 302 301 300 298 301 307 308 309 309 311 311 312
312 312 312 312 312 313 313 313 313 313 313 313 313 313 313 313 313 313 314 314 315 316 315 316 316 312 308 303 314 317 320 315 311 310 308 309 306 306 308 308 308 307 308 306 307 306 307 305 306 303 304 300 297 302 299 299 300 292 296 297 290 289 286 297 299 299 296 299 298 298 286 285 293 296 300 299 301 301 298 298 298 305 307 308 308 310 311 311
312 312 312 312 312 313 313 313 313 313 313 313 313 313 313 313 313 314 314 314 315 316 316 316 314 309 303 304 316 318 346 312 309 307 308 306 305 304 305 307 306 307 307 307 307 307 308 307 305 301 297 303 302 299 293 294 295 295 290 285 289 287 290 296 300 298 295 298 300 297 288 288 293 296 299 299 301 300 298 299 298 302 306 307 307 309 310 310
312 312 312 312 312 312 312 312 312 313 313 313 313 313 313 313 313 314 314 314 315 315 315 311 311 308 302 299 307 322 312 305 306 309 308 308 306 303 305 305 306 307 307 307 308 308 306 306 300 298 299 300 296 292 290 289 289 292 290 288 287 288 290 292 297 299 299 298 298 296 286 291 292 297 299 300 301 300 298 298 298 301 305 306 306 308 310 309
311 312 312 312 312 312 312 312 312 312 312 312 312 313 313 314 314 315 314 314 313 315 312 308 312 310 299 309 318 305 303 306 310 309 308 308 307 306 305 304 303 304 306 307 307 307 305 303 305 301 301 295 294 296 287 283 284 286 290 286 289 288 289 287 294 298 298 297 292 295 291 291 294 296 299 300 300 299 298 299 300 302 304 305 306 307 308 308
312 311 312 311 312 312 312 312 312 312 313 312 312 311 311 313 313 311 312 312 314 314 313 315 310 305 302 311 304 306 308 307 308 309 307 307 307 306 304 303 305 303 307 303 306 302 304 298 300 291 295 296 296 291 285 281 285 286 288 286 286 290 291 290 290 295 297 296 293 292 292 292 294 297 298 300 300 299 298 299 300 301 302 304 304 306 307 307
312 311 311 312 312 312 312 312 312 312 312 311 312 313 313 312 310 311 310 311 308 304 301 303 303 292 294 305 311 309 307 308 309 307 305 306 307 306 306 306 304 302 300 299 299 300 303 300 301 293 288 290 291 292 289 291 297 295 295 293 292 289 289 290 294 297 298 293 292 292 290 292 294 296 297 298 300 299 299 299 301 301 302 303 303 304 306 306
311 311 311 312 312 312 311 312 312 312 312 309 311 313 313 312 308 309 311 310 304 307 310 309 307 308 307 306 307 308 309 310 305 304 306 307 307 303 302 303 304 304 301 294 299 298 305 291 288 287 289 294 300 299 298 301 302 300 297 294 291 292 293 298 296 298 303 294 292 293 294 294 294 295 297 298 298 298 298 298 301 301 301 302 303 303 304 305
311 311 311 311 312 312 312 312 312 312 312 309 309 310 309 300 299 299 303 307 309 310 309 310 308 305 304 307 307 306 303 303 305 303 305 308 307 301 298 299 298 295 294 300 299 307 303 291 290 294 296 300 300 301 301 300 299 298 295 293 289 292 290 296 298 300 300 295 292 294 295 294 295 296 297 299 297 296 297 298 298 301 301 301 302 302 303 304
311 311 311 311 311 312 312 312 312 312 311 308 308 309 313 305 307 309 307 298 305 310 312 311 314 307 308 307 309 310 307 302 300 303 306 306 302 296 297 297 295 291 295 297 297 295 293 289 295 300 303 305 304 303 302 299 297 296 293 291 289 289 294 296 301 300 300 297 290 293 291 293 295 296 297 298 297 297 298 299 299 300 300 301 302 302 302 303
311 311 311 311 311 311 312 312 311 310 306 308 311 312 313 309 312 313 310 303 301 309 308 309 309 304 305 308 309 308 301 299 297 301 302 304 300 298 297 293 293 295 299 300 292 292 290 294 298 302 303 301 302 300 299 298 296 292 290 287 286 292 291 285 295 302 301 297 293 295 292 292 295 296 296 298 298 298 301 301 301 301 300 301 301 302 303 302
311 311 311 311 311 311 312 312 310 309 308 310 311 311 310 311 314 313 308 300 299 305 309 307 306 305 303 303 307 305 301 301 302 299 306 302 297 300 296 296 294 294 292 296 295 292 293 299 305 303 302 302 298 299 296 292 288 294 296 293 290 293 293 292 291 297 300 299 300 295 291 288 291 292 293 296 297 299 301 301 301 302 302 302 304 304 304 303
310 311 311 311 311 312 312 311 305 309 312 312 309 313 309 315 315 314 306 301 302 301 310 306 309 308 306 313 309 302 303 303 304 304 305 303 300 299 296 300 296 290 293 295 296 294 295 301 303 301 302 300 299 294 296 295 287 289 294 296 295 295 294 295 297 294 285 283 294 296 283 280 286 292 293 295 294 296 299 299 299 300 301 301 301 301 303 307
311 311 311 311 311 311 311 310 310 309 307 306 310 309 311 317 316 317 308 297 291 301 302 297 307 301 310 305 310 305 304 297 304 305 306 306 307 301 301 294 298 290 294 295 293 294 296 304 302 300 299 297 297 295 297 295 288 287 289 298 297 297 295 294 294 291 282 281 289 297 283 278 286 290 293 295 294 295 297 298 299 299 300 301 301 301 302 303
311 311 311 311 311 310 307 309 315 310 305 306 310 311 311 317 318 318 304 290 285 302 300 304 300 301 307 306 305 305 288 293 304 304 304 306 301 307 295 291 296 297 299 298 290 288 301 301 299 300 298 297 294 290 296 296 291 286 296 300 299 297 295 294 294 290 285 292 294 296 288 280 281 289 294 295 293 294 295 297 298 299 300 300 301 302 302 303
311 311 311 311 311 309 308 309 311 306 304 308 311 310 311 318 316 317 300 281 280 301 298 299 301 309 305 308 305 297 298 301 296 300 306 304 303 300 297 293 293 293 296 295 282 293 301 299 299 297 296 293 289 295 298 298 292 290 299 299 298 298 296 297 293 288 288 287 280 286 293 283 280 288 295 295 291 292 293 296 298 299 299 300 301 302 303 304
311 311 311 310 310 310 307 306 307 307 309 312 313 313 315 316 312 303 288 279 296 297 308 298 308 304 301 303 299 299 298 302 294 299 303 302 303 300 292 295 295 294 297 296 286 294 301 300 299 300 295 289 296 295 295 298 292 296 300 301 299 298 298 295 288 288 286 284 278 284 290 282 281 287 290 293 292 291 293 296 297 298 299 299 299 301 303 304
311 311 310 308 308 306 304 308 309 310 312 316 315 316 316 314 304 290 282 276 302 291 300 299 297 296 300 295 296 298 295 298 300 301 301 299 300 301 299 302 296 295 293 296 294 295 297 305 305 299 296 297 296 296 298 296 298 300 299 296 292 294 291 290 289 287 285 278 280 287 290 288 279 283 286 288 292 296 295 295 297 299 299 300 299 299 302 304
311 310 309 308 310 315 317 310 312 314 318 319 319 318 313 306 295 283 278 288 300 296 301 299 296 301 297 294 291 298 297 299 297 299 294 299 298 297 298 292 300 292 288 290 290 295 296 296 297 298 302 298 298 296 299 299 299 298 294 291 287 286 287 285 285 286 277 274 283 288 289 291 278 280 288 292 296 297 297 296 297 298 298 299 299 300 301 303
309 309 309 306 314 313 314 311 313 316 319 320 319 313 306 288 296 281 281 299 286 294 295 294 299 298 297 298 296 295 294 297 299 297 293 290 290 289 289 284 290 283 280 282 282 292 290 291 295 298 302 296 295 291 290 294 296 293 289 287 280 277 279 277 281 276 276 276 283 289 290 287 283 286 289 294 295 297 299 299 298 298 298 298 300 301 301 302
308 309 311 311 311 312 318 318 318 321 321 320 315 308 297 284 278 288 289 292 287 296 294 298 296 296 296 293 291 295 298 293 299 299 298 295 292 292 295 291 293 288 280 286 285 286 285 294 294 296 297 298 295 285 284 286 289 289 286 283 279 275 274 271 275 279 279 286 291 288 293 283 285 289 293 294 296 298 300 300 299 297 297 299 300 300 301 302
308 309 307 316 319 320 322 322 320 322 318 317 310 303 295 283 282 302 293 292 295 299 298 295 295 295 295 289 292 294 288 295 295 295 296 295 292 291 292 294 295 293 291 288 284 285 279 281 289 294 289 297 294 291 289 288 288 288 291 288 282 280 279 271 276 273 277 281 285 292 284 278 281 283 296 297 300 300 299 300 300 299 298 300 301 302 303 303
308 309 310 314 317 320 322 326 316 321 318 310 301 295 283 282 288 288 289 290 294 296 293 296 293 291 289 290 293 295 294 289 296 295 294 292 287 291 291 291 298 296 294 284 287 285 287 285 292 297 296 296 293 295 295 292 289 290 294 292 284 281 285 280 279 279 280 278 279 280 280 283 284 293 298 300 300 300 300 300 301 300 299 300 301 300 300 302
311 316 318 317 325 327 324 319 317 322 310 302 296 285 283 290 288 293 292 297 295 291 291 293 292 287 286 286 292 292 294 293 295 293 292 292 292 290 294 295 294 296 289 284 287 282 287 282 294 296 299 296 295 297 295 296 281 289 290 284 287 292 290 283 282 285 280 280 276 282 282 285 290 292 294 296 297 298 298 297 298 299 300 300 299 299 299 301
313 318 317 324 323 315 317 318 318 313 309 302 292 284 292 298 297 296 298 295 294 293 290 283 287 286 286 286 288 292 295 297 294 291 285 294 287 293 293 297 298 297 297 292 287 294 284 282 292 292 291 296 298 299 298 297 296 290 284 287 294 297 296 286 278 279 278 274 277 281 277 279 282 279 291 292 292 295 296 296 298 297 299 299 299 298 298 300
312 314 317 317 312 315 318 321 316 312 308 301 288 295 300 295 301 298 298 297 295 294 288 287 287 291 285 286 286 291 294 289 291 293 288 291 285 298 294 293 298 297 298 297 288 291 291 280 287 293 293 295 298 295 292 296 297 291 288 294 288 280 280 284 280 273 272 272 273 277 282 281 283 283 288 290 292 293 295 297 296 298 298 301 301 300 299 299
313 312 308 311 311 312 319 320 315 309 303 296 287 289 298 297 300 297 298 298 297 294 287 289 286 292 289 285 289 292 292 285 291 289 285 289 284 298 295 294 294 298 298 298 291 292 293 282 283 294 292 294 294 292 281 285 291 296 295 289 292 286 282 279 280 279 279 271 273 271 280 275 288 285 289 289 294 294 294 295 296 297 298 299 301 302 303 303
313 308 305 312 313 314 318 314 312 307 301 288 291 295 298 296 297 299 297 298 295 292 291 289 291 286 290 289 290 286 291 290 288 288 290 290 288 298 294 296 293 296 298 298 294 297 285 291 278 287 294 293 284 289 285 287 285 285 286 284 289 287 291 287 287 283 279 274 273 272 272 278 283 292 292 293 294 295 294 294 295 296 298 300 301 303 302 303
313 306 305 314 312 316 314 311 302 299 297 298 299 296 297 294 296 297 298 298 297 299 294 293 291 287 290 288 288 291 288 288 289 285 289 289 289 283 296 296 297 294 297 296 293 292 284 283 280 283 285 284 286 293 293 292 291 288 286 284 287 285 282 278 279 289 285 279 276 275 274 281 289 297 295 294 295 296 296 296 296 298 299 300 300 300 302 302
307 301 301 310 314 315 305 295 296 302 298 293 295 299 297 302 296 296 297 298 297 292 298 295 295 293 292 292 291 290 290 288 288 288 290 286 293 291 295 298 297 297 292 286 289 295 291 288 284 279 282 285 289 293 295 295 294 292 290 286 290 287 285 280 275 279 284 284 286 281 276 283 292 295 296 296 296 296 297 297 296 297 298 298 300 302 302 303
301 297 311 313 314 312 300 293 295 291 293 294 298 298 299 298 296 297 295 297 294 297 296 296 294 292 295 292 291 289 290 287 289 286 289 289 290 295 297 297 297 297 294 288 294 292 299 282 281 282 287 289 291 293 294 294 293 290 289 291 289 286 286 284 281 282 280 280 280 279 275 281 290 296 296 296 296 295 295 296 295 295 296 296 296 297 298 300
301 302 304 309 312 304 294 284 283 284 292 296 297 296 299 296 294 293 293 296 296 294 293 292 292 296 291 293 290 288 292 281 293 289 287 291 288 298 298 297 297 292 291 290 288 293 283 285 284 278 277 278 282 287 287 290 291 286 283 286 291 290 290 290 289 286 280 281 282 278 273 281 289 295 295 295 294 294 294 295 295 294 295 295 295 295 295 296
301 305 305 304 305 300 291 294 291 286 291 292 293 291 293 294 295 295 295 294 296 294 294 292 293 293 293 294 290 290 291 289 285 293 291 292 289 295 295 296 297 293 298 299 303 294 285 284 282 276 272 271 270 272 273 277 282 283 288 287 287 287 286 283 279 279 277 280 284 278 277 284 289 291 292 292 292 292 293 293 295 295 294 294 295 295 296 296
295 284 294 295 298 296 298 298 297 292 287 289 284 290 292 290 294 297 296 295 296 296 293 294 293 293 291 291 289 290 290 293 289 288 288 288 290 293 295 296 298 296 301 303 298 294 284 288 284 281 278 278 279 282 288 288 283 279 283 285 285 287 287 286 282 279 276 279 278 281 283 281 285 287 288 290 290 290 291 292 293 294 294 294 295 295 295 295
301 290 286 284 292 294 292 294 294 294 287 292 282 291 288 291 292 294 296 291 297 294 296 295 294 290 288 289 287 288 291 289 291 289 289 288 291 292 295 295 295 301 304 299 299 289 285 280 284 285 285 285 286 286 287 287 283 284 284 284 286 285 286 284 279 277 282 278 275 281 284 282 284 287 288 288 289 290 290 291 292 292 292 293 293 294 297 295
288 291 295 295 289 284 285 286 293 291 294 294 288 293 289 289 291 287 294 295 295 295 291 294 294 293 291 289 289 283 288 288 289 283 291 291 290 292 290 294 293 300 301 294 298 289 283 278 283 284 284 286 286 286 287 286 286 286 286 285 284 285 284 280 280 284 283 277 276 280 282 280 283 286 288 288 290 290 290 292 292 292 292 292 292 293 293 293
297 295 296 295 287 290 290 292 294 293 292 294 289 293 290 290 289 292 292 293 293 292 293 282 289 291 291 292 289 285 287 280 279 288 287 286 289 287 286 290 293 294 293 290 291 291 287 279 285 286 284 285 285 286 287 286 285 285 285 285 285 284 282 283 283 284 283 281 282 282 281 280 284 286 288 289 292 292 291 292 291 291 290 292 293 293 293 295
290 291 290 294 292 291 293 293 294 293 290 295 286 292 292 292 290 292 294 291 284 290 294 289 289 290 290 290 289 285 288 287 286 282 288 287 285 288 286 288 286 291 291 289 290 289 285 280 288 285 280 282 285 287 286 285 285 283 285 285 284 284 284 284 283 281 283 281 282 280 278 281 285 289 289 291 290 290 290 289 289 291 294 293 293 293 294 294
296 298 297 292 288 290 293 292 290 289 285 288 285 291 292 292 291 292 290 293 289 288 290 288 290 290 290 289 288 287 292 290 290 288 289 289 283 291 286 287 292 287 289 288 289 289 287 279 287 284 277 276 284 284 284 285 284 282 282 282 281 281 278 279 280 281 279 278 279 278 278 280 285 288 288 290 289 289 289 290 290 292 293 294 293 294 295 295
298 299 299 294 285 292 289 291 291 289 283 290 293 291 291 290 291 291 283 292 293 293 293 291 291 289 288 288 288 289 291 291 291 292 291 290 291 290 291 291 291 288 286 286 287 283 285 280 279 279 276 276 283 285 283 281 278 277 276 277 282 282 283 284 284 285 285 283 280 279 280 283 286 288 287 287 288 289 290 292 292 293 294 294 294 294 295 296
Wind_Speed
12 12 11 10 10 10 10 9 9 9 9 10 10 9 9 9 9 9 9 9 9 10 10 11 12 13 14 14 15 15 14 8 11 7 6 14 9 11 17 9 11 11 7 1 2 2 5 7 7 7 7 3 2 4 5 7 4 2 3 4 5 6 8 6 5 0 1 0 5 4 2 5 8 3 1 5 10 15 15 16 16 20 15 18 17 16 16 14
12 11 11 10 10 10 9 9 8 9 9 9 9 8 9 9 9 9 9 9 10 11 11 11 12 13 14 13 14 14 12 7 9 11 17 13 9 8 9 10 11 11 5 1 3 5 6 7 8 6 6 4 2 4 3 2 3 3 2 3 7 5 10 6 5 10 3 2 5 3 4 4 3 7 1 6 7 12 16 13 19 16 15 14 15 16 14 12
12 12 11 11 11 10 10 10 10 9 10 9 9 10 9 9 9 8 9 9 10 10 11 12 12 13 14 13 13 12 9 7 8 12 16 16 13 10 10 9 8 8 6 3 4 7 8 9 6 6 5 5 3 6 7 3 3 5 2 5 6 8 9 9 11 6 4 4 3 3 4 3 6 4 0 4 8 10 14 13 15 17 15 15 13 13 11 9
12 12 11 11 11 10 10 9 9 9 9 9 8 9 9 9 10 10 9 9 10 11 11 12 13 14 14 13 13 9 7 7 5 6 3 14 14 11 9 9 7 5 1 4 4 5 7 11 11 7 4 6 4 8 5 3 4 2 5 3 7 5 7 7 7 5 2 7 3 8 3 6 6 4 3 5 4 4 10 19 20 19 19 17 14 12 9 9
12 12 11 11 11 10 10 9 9 9 9 9 10 10 10 10 9 11 11 11 11 11 12 12 13 13 14 13 10 7 7 4 1 3 1 11 11 10 9 9 7 4 5 3 3 7 10 11 11 6 5 4 7 5 6 7 9 1 9 12 10 8 9 7 9 9 10 4 3 6 4 2 1 3 5 7 3 1 2 9 20 21 19 19 15 12 8 7
13 12 11 11 11 11 11 11 10 10 10 9 9 9 9 9 9 10 10 10 11 11 11 11 12 13 14 13 7 5 2 3 1 3 8 11 11 11 10 9 7 1 1 3 4 5 8 10 9 4 4 4 4 6 4 9 9 6 6 8 10 10 10 1 3 7 8 9 5 1 2 2 2 2 3 3 4 1 5 14 15 18 17 15 13 11 9 7
12 12 12 11 11 11 11 10 10 10 10 10 9 9 9 9 10 10 10 10 10 11 11 11 11 12 13 14 3 2 3 8 6 2 11 9 10 10 9 8 5 2 0 2 6 5 7 11 7 5 3 5 9 10 10 7 10 7 6 7 12 10 7 5 5 6 5 9 5 6 1 1 2 1 1 4 6 17 20 23 23 18 16 15 11 9 10 8
13 13 12 11 11 11 11 10 10 10 10 10 10 10 10 10 10 11 10 11 10 10 10 10 10 11 11 8 1 2 3 8 8 7 13 9 7 8 8 4 5 3 3 7 7 9 9 10 9 5 6 6 4 8 6 9 7 8 8 6 5 3 2 6 5 4 2 4 4 8 5 4 2 4 6 5 9 17 23 20 18 18 15 12 11 10 8 8
13 12 12 12 11 11 11 11 10 10 10 10 11 11 11 10 11 11 11 11 10 10 10 10 10 9 7 4 1 6 7 10 8 11 8 7 6 7 6 4 6 7 5 8 10 13 9 8 9 6 4 7 9 11 5 5 5 6 7 3 3 4 2 5 7 2 1 1 1 3 4 5 5 6 1 5 4 11 19 21 20 17 14 14 11 10 9 8
13 12 12 11 11 11 11 11 11 11 11 11 10 11 11 11 11 12 11 11 10 10 9 10 10 9 6 3 4 2 6 9 9 11 10 9 8 9 8 7 9 9 7 10 11 12 12 5 6 3 6 8 7 9 9 7 4 6 5 6 7 3 1 4 6 4 4 2 0 1 1 5 6 3 2 1 6 4 16 20 19 17 14 13 11 10 8 9
13 12 12 12 12 12 12 11 11 11 11 12 11 11 12 11 12 11 11 11 10 9 9 10 8 6 4 4 3 5 4 9 6 8 11 9 9 8 9 8 10 10 12 12 13 14 10 9 5 3 2 1 10 6 6 3 4 4 2 1 5 5 5 2 3 1 2 3 4 2 3 2 4 1 4 3 4 6 7 15 16 15 13 13 12 9 7 8
13 13 12 12 12 11 12 12 11 12 12 12 11 12 11 11 12 12 11 10 10 9 9 7 7 4 4 5 4 9 6 4 10 9 9 10 7 8 10 11 10 12 11 9 8 4 4 8 4 3 3 8 3 9 6 9 1 3 2 4 4 4 3 5 4 4 3 2 5 3 2 4 3 4 6 7 4 7 6 10 15 14 13 13 12 9 8 11
14 13 13 13 13 12 12 12 12 12 12 12 12 12 12 11 12 12 11 11 7 7 7 8 6 4 3 4 8 15 16 5 11 12 7 7 4 6 7 6 5 4 5 6 8 7 7 5 4 5 4 4 5 3 5 9 6 3 1 3 4 4 3 5 4 4 6 3 9 7 3 5 7 10 8 8 7 7 6 5 11 12 12 12 11 10 9 10
14 14 14 13 13 13 12 12 12 12 12 12 12 12 12 12 12 12 11 10 10 9 9 7 4 3 1 6 6 5 13 8 6 9 8 8 6 6 8 7 5 4 4 5 8 7 6 4 4 5 3 4 4 3 4 4 1 1 2 1 3 4 6 5 6 8 6 5 7 7 3 5 8 9 12 6 8 12 6 5 5 13 12 12 11 11 11 11
15 14 14 14 13 13 12 12 12 12 12 12 12 12 10 12 11 12 11 11 9 7 6 5 3 1 0 7 8 13 2 2 2 5 4 5 7 5 8 6 7 7 7 5 3 3 4 4 4 3 4 4 7 4 4 3 1 1 1 6 3 5 8 9 8 11 11 3 11 8 3 8 7 9 12 5 14 11 9 7 5 11 13 12 11 12 12 11
15 15 15 14 13 13 13 12 12 12 13 12 12 12 12 12 11 11 11 10 9 8 5 3 4 3 4 9 5 5 1 3 6 6 6 6 6 6 5 9 6 7 7 5 3 4 5 3 2 3 5 4 4 3 4 4 5 1 5 3 4 5 10 7 8 12 15 5 8 11 4 3 3 5 6 12 13 13 9 7 5 10 13 12 11 11 11 11
15 15 14 14 13 13 12 12 12 12 13 12 13 12 11 11 10 9 9 9 5 4 4 2 2 6 1 2 8 3 3 6 7 5 6 8 5 7 6 4 4 6 6 5 5 4 4 2 1 2 1 3 4 4 3 4 5 5 3 7 6 6 5 6 6 11 11 9 4 7 3 5 4 4 5 7 8 7 6 5 6 8 11 11 10 11 12 12
16 16 15 14 14 13 12 11 11 12 12 12 10 10 8 8 5 5 5 3 4 5 6 6 3 2 9 7 6 7 7 6 4 4 6 4 7 5 5 3 2 4 3 4 3 4 1 2 2 3 1 1 1 0 3 7 5 1 2 2 6 6 7 5 4 9 10 11 9 6 6 5 7 4 3 8 9 7 6 5 7 7 10 11 9 10 13 11
16 16 15 14 14 13 12 11 10 11 12 13 15 9 9 5 3 4 2 3 1 1 1 2 4 4 1 7 13 6 4 3 4 3 3 3 3 4 4 4 3 4 3 3 2 5 1 1 0 1 4 2 4 5 6 5 1 1 3 1 2 4 3 5 7 9 16 10 6 10 9 8 6 2 6 8 9 10 8 6 5 7 9 11 9 9 13 10
16 16 15 15 14 13 11 11 9 9 11 8 5 1 0 1 1 1 2 3 6 9 6 4 11 4 9 3 2 3 4 4 1 4 3 4 1 4 6 3 4 3 1 4 3 5 3 4 4 5 7 6 2 3 3 1 0 1 2 4 4 7 7 7 10 6 2 4 7 3 4 4 5 3 3 5 2 5 8 7 6 5 9 10 10 9 11 13
17 17 16 15 15 13 13 11 9 6 5 3 4 1 2 3 2 2 2 7 12 13 14 14 12 13 8 3 3 2 2 3 3 3 7 5 4 3 3 3 3 3 4 4 3 2 4 4 6 7 9 5 4 4 3 5 5 2 2 3 7 5 5 2 1 1 4 3 2 3 2 4 4 3 4 1 5 5 6 7 6 6 8 9 11 11 10 9
17 17 16 16 15 14 14 11 8 4 6 2 2 3 3 2 1 3 1 4 6 13 16 17 13 14 9 9 3 1 3 1 4 6 4 9 3 4 2 5 4 6 4 4 3 1 2 5 7 9 4 2 2 3 4 3 3 4 1 1 2 6 3 5 4 7 6 5 3 6 4 4 4 5 4 6 4 4 6 9 10 9 8 8 9 9 9 7
18 18 16 15 15 15 14 13 9 3 0 3 3 4 3 1 3 6 4 3 9 11 10 14 15 7 8 6 3 4 3 5 5 8 4 4 4 7 3 5 5 5 4 4 5 3 3 5 10 7 3 3 3 4 4 3 2 0 3 3 1 4 5 3 3 3 5 3 2 3 4 6 5 4 7 5 7 4 8 8 9 9 9 9 9 9 9 9
16 16 16 15 15 14 15 13 14 3 5 5 6 9 5 4 5 5 4 2 4 8 11 8 8 8 8 5 2 5 3 3 5 8 4 4 3 5 4 5 6 4 7 6 9 7 8 4 4 5 4 2 0 1 2 1 2 4 1 1 2 3 6 2 1 1 2 2 1 3 4 6 4 7 6 9 8 7 6 10 8 5 6 7 6 6 8 9
17 16 15 15 13 14 14 14 5 7 3 3 6 8 2 6 4 3 1 2 2 4 3 3 3 2 2 1 4 1 3 5 2 3 5 4 3 3 4 4 4 4 5 9 9 11 10 9 5 4 3 2 1 2 1 2 1 1 3 4 5 4 5 8 1 2 3 5 2 3 3 3 5 9 10 10 4 6 6 13 12 9 6 4 5 6 5 5
16 15 14 13 13 12 13 4 2 3 5 5 1 1 3 5 4 4 1 2 2 4 5 4 1 3 2 2 1 3 4 5 6 8 5 3 3 2 2 4 2 5 6 8 5 3 5 3 7 8 5 4 2 2 1 4 4 1 3 3 5 6 6 8 6 1 1 1 5 3 6 6 6 5 6 7 7 12 4 12 12 7 7 7 7 6 7 7
15 14 13 12 9 10 3 2 4 9 3 3 5 6 4 4 3 3 3 2 3 2 1 0 3 0 3 1 4 2 2 4 2 4 4 5 2 2 1 5 4 4 4 1 4 4 2 1 4 3 1 2 3 4 3 2 2 3 2 3 4 3 6 12 7 4 3 2 3 2 4 3 5 10 7 5 7 7 8 9 11 11 10 9 9 8 7 9
14 12 11 10 7 2 0 4 9 5 3 3 5 5 5 4 4 1 1 1 1 5 1 1 2 1 1 2 2 3 2 3 2 1 0 1 2 1 0 5 6 7 5 4 7 5 4 2 3 2 2 1 3 3 2 5 4 3 2 4 3 2 2 4 1 1 1 2 7 3 5 1 3 8 9 6 2 6 9 9 12 11 10 12 12 12 13 12
13 11 10 7 6 5 2 2 2 4 3 5 6 6 5 5 3 1 1 1 3 0 2 2 5 2 1 3 4 3 4 3 4 2 2 3 3 1 3 6 4 7 9 5 6 3 2 4 7 6 3 3 2 3 4 3 4 4 3 2 1 4 2 1 3 2 2 0 6 5 2 3 6 6 8 7 7 6 11 13 10 10 12 9 11 10 11 11
12 9 8 7 3 2 2 1 4 9 5 6 4 6 5 2 2 1 3 3 0 2 2 1 3 5 4 3 4 6 7 4 4 2 3 2 2 0 2 1 3 4 5 5 6 6 4 1 6 3 3 3 2 4 4 5 5 4 4 1 2 1 3 2 0 1 3 4 7 6 6 5 6 4 7 4 3 8 10 6 8 11 10 9 7 6 9 11
11 9 5 4 1 4 3 3 2 4 5 5 6 6 2 1 1 1 1 4 3 2 3 1 1 7 9 8 6 6 8 3 7 6 3 2 1 5 1 3 0 4 3 4 4 6 4 2 1 1 4 2 0 4 4 5 3 5 1 1 1 5 4 3 2 1 3 5 9 7 6 4 5 4 6 7 6 3 1 3 9 9 8 8 7 7 8 9
12 10 4 1 4 5 0 3 4 3 5 6 5 4 2 2 1 2 3 4 3 3 1 1 3 3 8 3 5 3 4 7 4 7 5 5 3 5 4 4 3 1 4 2 6 4 4 6 3 5 7 8 4 4 7 5 4 1 3 4 3 3 1 2 1 3 4 7 6 4 3 5 6 9 8 7 4 11 5 4 4 3 4 6 9 9 9 9
13 11 10 6 4 2 5 4 5 2 4 4 3 2 1 1 1 4 2 1 1 2 1 2 1 4 3 8 6 9 7 4 2 1 4 6 9 6 9 9 7 7 4 3 6 1 5 7 7 3 4 6 5 4 2 5 2 4 4 4 2 1 1 3 3 2 3 2 3 2 2 3 4 6 6 6 7 5 4 4 5 5 7 7 8 6 6 7
12 7 5 3 3 7 8 7 5 1 3 3 1 2 0 1 2 6 5 4 1 1 6 7 11 1 2 3 5 4 3 5 5 3 3 1 2 0 4 8 9 4 4 3 3 1 3 4 6 1 1 5 5 7 7 5 3 6 4 7 8 5 2 3 2 3 3 2 2 4 4 3 1 5 6 5 5 5 4 4 3 4 7 6 8 6 7 7
13 6 4 5 3 7 10 10 6 2 1 4 3 0 0 3 4 3 3 4 4 8 10 11 8 8 7 7 5 7 5 1 2 1 1 2 2 1 2 3 4 3 2 4 2 1 3 3 5 6 4 10 9 8 6 4 5 2 3 3 4 7 5 9 4 1 2 2 5 1 3 2 3 8 12 11 8 10 8 9 3 2 2 2 3 6 6 6
6 2 4 2 1 4 7 4 2 1 3 5 2 1 1 2 3 4 1 3 5 7 10 8 7 5 3 5 4 7 7 1 1 3 2 2 3 4 5 4 6 8 2 4 2 1 1 3 5 6 5 6 7 8 8 5 3 2 5 3 7 5 4 1 2 0 5 3 6 2 4 7 5 6 9 8 7 8 7 5 6 1 2 0 4 5 5 3
3 4 3 3 5 2 2 2 2 3 2 0 1 1 2 3 4 3 4 7 5 6 4 5 3 3 3 3 4 6 1 2 1 3 3 1 6 4 5 3 5 3 5 4 2 0 3 6 6 8 11 9 8 1 1 5 4 2 4 7 8 5 4 4 4 0 2 4 5 2 3 5 3 5 4 5 4 7 10 8 4 6 5 2 3 5 5 3
4 2 4 8 4 4 3 3 5 2 0 0 1 7 2 4 6 0 5 5 5 6 5 3 2 3 3 4 5 7 6 5 2 1 2 2 3 3 4 3 2 4 7 8 2 1 5 5 2 4 8 10 8 5 3 4 4 5 8 3 3 2 3 3 2 1 0 2 3 2 5 4 5 7 4 5 8 8 9 3 4 3 4 2 7 4 1 3
2 1 3 1 3 3 1 3 1 1 1 2 3 3 4 2 3 9 5 6 3 3 3 2 3 2 7 5 6 7 8 3 6 3 4 1 3 3 3 3 3 4 6 7 1 2 3 1 3 2 6 8 10 4 5 3 5 4 2 5 1 1 4 1 2 1 2 3 1 5 1 5 3 3 5 8 2 5 7 9 11 11 13 11 6 5 8 10
1 2 1 1 1 1 1 1 1 1 1 2 4 3 4 3 8 7 4 0 1 1 1 3 4 4 3 4 7 4 6 9 5 4 1 1 5 2 2 3 2 5 4 4 1 2 1 0 4 3 8 8 6 2 4 4 4 5 5 3 2 0 1 4 0 0 1 1 1 1 3 3 3 1 1 2 4 2 4 6 6 7 8 9 8 10 10 7
3 1 2 3 2 0 0 0 0 2 2 4 5 4 5 4 7 7 9 2 4 5 3 2 2 2 1 4 5 6 3 4 5 4 2 4 3 2 4 3 2 5 4 8 6 5 1 2 2 2 5 4 6 5 8 9 7 4 4 6 5 2 5 4 10 0 3 2 2 0 8 7 6 5 9 5 3 6 4 6 6 8 8 8 7 5 5 7
1 1 1 2 2 1 1 3 2 2 2 3 3 1 3 3 2 3 3 5 4 3 2 2 2 3 2 2 3 3 3 3 3 4 2 3 3 3 1 9 6 6 4 1 2 1 2 1 0 4 4 7 8 10 14 16 14 11 3 6 6 2 6 4 2 4 1 4 4 5 1 14 2 4 1 3 4 5 6 8 8 8 7 8 7 8 8 7
2 4 2 3 4 0 2 2 3 3 2 4 12 5 6 5 5 5 6 4 4 2 2 1 3 4 2 3 4 5 7 3 3 4 5 6 8 1 2 7 3 3 5 3 5 3 1 1 1 5 4 6 7 7 10 12 14 12 5 3 2 3 2 5 4 3 2 2 2 0 2 8 3 2 2 4 5 4 6 9 10 10 8 7 8 9 8 9
4 4 4 4 4 5 2 1 4 7 4 4 4 7 9 7 7 8 5 3 1 3 3 3 5 1 4 4 4 5 2 2 0 4 3 3 3 3 2 5 6 1 3 2 2 2 1 1 3 3 4 5 5 4 6 4 4 2 3 4 3 2 2 1 1 2 1 5 6 3 6 7 4 4 5 7 6 8 8 8 8 9 8 9 9 7 7 7
4 3 1 2 3 7 1 1 0 2 3 5 6 8 7 4 6 8 9 6 4 2 3 2 3 3 3 3 6 6 6 4 3 2 5 4 6 6 7 4 3 3 4 8 9 3 3 2 1 4 6 8 5 1 0 4 7 4 1 6 8 7 5 5 1 2 1 2 2 3 5 9 7 4 2 3 7 6 7 9 8 5 6 8 10 10 10 7
2 3 5 5 6 5 1 8 3 5 4 4 6 4 4 5 5 7 10 3 3 2 1 2 4 5 4 5 3 3 4 5 4 2 3 3 3 3 7 9 3 5 5 10 7 4 2 1 2 3 5 8 7 4 4 8 6 6 10 8 9 8 5 1 1 2 5 4 4 6 6 6 11 8 3 2 3 5 8 9 9 9 9 11 11 14 12 11
2 2 2 5 6 3 5 5 5 4 4 4 2 2 5 4 5 6 4 1 1 3 2 1 3 3 2 4 4 3 3 6 6 6 4 6 4 4 10 8 13 9 12 6 6 5 2 2 6 7 10 11 8 9 7 8 10 12 11 12 9 5 2 4 1 5 1 4 8 3 0 3 11 12 7 1 3 4 4 4 4 4 6 7 11 12 15 15
2 2 3 1 1 4 8 6 8 9 8 6 3 3 5 5 4 3 5 7 6 5 1 0 1 3 5 5 5 3 1 4 4 4 4 3 6 10 9 9 6 1 3 2 3 3 4 4 6 5 9 11 8 8 7 7 9 11 13 13 13 7 4 4 5 7 6 4 9 7 4 3 7 12 10 2 1 1 3 2 3 4 4 7 8 11 12 10
3 2 1 5 3 5 5 9 13 11 8 6 3 4 4 5 5 5 4 2 3 4 9 3 2 4 3 6 6 3 2 3 3 4 2 5 4 5 5 9 4 7 7 4 2 1 0 2 3 4 6 6 5 6 7 10 7 9 11 12 7 3 3 4 6 5 4 6 8 10 7 9 9 10 7 3 0 0 2 2 4 6 4 3 3 4 4 6
4 4 5 5 2 6 6 4 6 7 4 7 4 3 5 3 5 6 7 5 3 5 7 5 11 11 7 9 7 5 0 3 4 1 4 4 7 2 3 3 6 6 5 4 3 2 2 2 1 3 5 6 5 8 6 7 7 11 14 9 6 7 11 10 6 6 7 5 5 4 6 11 5 1 4 6 4 1 1 4 5 1 2 3 4 4 6 7
3 3 3 4 6 4 4 5 6 6 5 4 4 4 4 3 4 4 5 7 5 4 5 8 8 8 7 8 6 6 3 2 3 1 2 1 2 2 2 3 6 8 10 6 2 3 3 3 3 3 5 4 1 5 10 6 8 13 14 6 4 5 6 3 5 5 3 6 6 6 8 11 11 7 5 7 6 3 2 3 4 5 5 5 6 6 8 8
4 3 4 3 2 4 6 5 6 4 4 2 2 5 3 6 9 11 4 3 3 3 4 10 7 5 5 8 6 6 6 6 4 3 4 4 2 4 6 9 9 7 3 4 4 5 1 3 3 3 5 5 1 2 7 6 8 11 8 4 8 8 8 8 6 5 7 6 6 7 9 8 9 5 4 4 6 6 4 3 3 4 4 4 5 8 7 10
Wind_Direction
330 331 326 326 322 323 320 318 320 318 315 316 314 316 311 311 310 308 306 307 309 311 313 317 322 325 326 328 329 330 330 318 312 308 266 240 230 228 247 197 166 171 179 193 255 256 264 264 246 231 248 246 238 235 257 277 252 230 214 208 264 242 264 261 268 286 94 22 132 106 164 100 118 91 67 78 82 93 91 85 70 68 80 105 116 116 120 124
329 327 328 325 323 322 321 315 312 315 318 317 313 307 308 308 307 305 304 306 311 312 315 320 322 324 326 328 329 332 324 295 289 281 251 257 231 165 158 155 151 167 168 200 229 227 249 256 239 213 225 235 177 247 176 247 238 204 237 163 225 232 249 265 282 297 71 316 267 150 134 76 165 104 350 87 99 104 98 99 94 88 92 93 108 118 123 126
331 328 325 324 323 324 325 321 318 320 317 316 311 311 309 308 308 307 305 305 308 311 316 320 324 326 326 326 329 329 326 300 293 262 259 232 210 180 166 164 163 167 169 195 211 240 234 240 235 212 207 238 213 238 205 237 218 233 203 230 241 242 262 265 277 268 83 15 330 21 108 69 151 80 342 114 128 128 125 119 113 122 122 123 123 125 130 136
330 329 328 324 326 322 319 316 313 308 308 309 311 308 306 305 302 305 308 306 309 314 319 322 324 326 324 323 326 327 305 284 275 242 235 173 169 171 164 156 162 182 290 268 288 274 278 285 283 225 207 210 247 233 227 216 218 176 222 215 240 254 257 287 343 315 19 70 355 44 21 88 136 111 141 114 115 166 152 149 146 146 143 138 136 135 139 146
334 331 328 327 323 319 316 316 314 312 312 314 312 311 309 305 302 300 304 308 311 315 318 321 324 322 320 318 326 315 316 5 281 14 165 136 155 162 159 158 162 176 200 259 265 262 260 267 273 253 219 223 235 244 233 206 205 161 198 229 252 273 285 292 30 356 6 39 34 62 352 58 231 104 107 136 111 15 247 156 145 149 141 136 139 142 141 153
335 330 330 326 323 321 320 318 316 313 310 304 302 302 300 295 296 300 302 303 308 312 318 321 322 322 317 315 314 302 320 92 232 182 184 164 163 160 161 164 172 216 304 268 243 262 268 261 246 257 212 231 251 239 228 223 180 232 240 230 235 238 247 269 38 9 11 352 14 19 244 107 147 68 67 88 119 77 25 146 132 118 122 127 132 138 143 146
332 333 331 331 324 322 318 313 310 309 308 302 300 302 303 301 298 300 300 302 306 314 320 321 317 319 320 308 239 220 250 271 307 137 163 174 176 161 162 152 127 114 214 248 245 241 243 249 237 235 231 219 239 244 249 230 176 203 226 222 234 238 233 118 78 42 5 341 350 327 172 304 129 132 46 90 102 85 76 93 110 115 120 125 128 139 145 148
336 335 333 329 326 321 316 315 313 311 309 306 303 302 301 299 298 297 302 305 309 316 318 316 312 317 337 337 253 217 200 252 241 158 173 178 175 166 149 141 143 158 193 225 230 237 246 254 229 221 239 207 235 230 240 234 192 210 231 248 264 261 249 90 71 45 31 314 353 28 8 356 157 134 170 131 107 106 112 107 106 121 125 130 134 142 146 140
338 334 332 330 328 323 318 315 313 307 304 304 302 298 299 300 301 304 305 305 308 313 314 310 311 316 328 286 298 320 251 227 178 167 158 175 184 152 152 162 191 176 209 228 230 237 244 244 238 220 225 224 247 262 261 243 233 206 244 198 243 239 142 127 125 169 176 326 21 54 317 323 295 20 25 100 126 115 117 121 132 132 135 139 146 149 153 144
340 337 333 330 327 325 319 316 313 310 306 303 303 302 300 299 300 300 301 305 308 312 311 308 313 323 303 268 282 270 272 118 137 156 172 185 183 164 182 209 164 209 211 226 235 243 237 250 246 250 248 265 253 257 268 235 232 215 228 241 263 32 40 153 121 148 111 232 39 190 247 288 307 14 301 125 124 127 128 131 140 140 143 146 148 153 155 139
339 338 336 334 329 326 322 316 313 308 304 303 303 300 296 295 295 297 297 301 308 308 308 310 321 328 301 269 284 259 176 125 156 158 187 196 187 187 202 219 194 197 220 238 229 230 241 252 269 311 313 235 333 300 283 232 207 212 267 325 294 168 194 90 81 6 127 211 253 174 224 254 281 258 220 250 155 160 139 132 136 141 141 147 149 148 147 127
339 339 336 333 329 326 323 320 315 311 307 303 301 300 296 292 294 294 296 300 305 305 301 314 332 307 267 265 246 239 244 146 173 174 192 196 193 214 215 209 213 215 218 255 286 281 289 270 302 356 260 335 303 308 302 320 231 52 56 297 310 330 279 134 146 195 172 232 192 137 302 306 280 245 213 186 206 143 157 137 145 142 144 145 147 140 136 137
338 336 335 335 331 328 325 322 317 314 310 307 304 300 297 294 291 291 293 299 303 308 313 315 320 269 305 324 231 235 250 252 177 176 172 205 210 223 238 253 263 263 269 283 294 314 315 337 11 341 298 289 304 277 285 314 312 109 307 267 331 334 288 203 166 188 176 194 177 116 222 274 262 258 256 197 186 144 143 150 143 146 144 146 147 144 136 140
336 336 337 332 331 329 327 324 320 315 311 306 302 299 298 294 291 290 289 287 290 295 296 295 293 289 266 253 275 258 235 230 211 166 184 187 215 224 231 239 253 268 274 264 263 272 312 336 333 283 299 284 288 297 321 299 341 36 279 168 215 275 272 224 186 174 201 175 141 118 163 276 250 246 249 233 142 148 157 169 156 142 149 153 152 150 147 154
335 333 332 332 331 330 328 324 320 316 313 309 304 299 294 292 289 286 284 283 280 281 298 298 228 266 121 267 252 250 204 17 243 194 194 199 198 232 230 214 216 233 249 251 283 305 261 257 309 307 275 249 253 269 295 305 318 190 26 284 297 190 257 255 197 167 197 196 137 112 201 236 255 279 266 219 152 142 155 180 181 143 150 157 157 152 153 158
332 331 330 330 328 327 327 324 319 316 311 308 303 298 293 290 289 286 282 275 284 287 277 265 203 216 327 294 281 357 34 209 249 197 192 229 203 234 221 200 212 226 229 261 243 256 267 295 223 219 262 319 315 233 280 353 316 224 159 252 249 195 244 269 190 183 183 163 139 143 199 244 281 265 352 175 155 147 149 182 190 143 156 157 157 156 155 156
331 329 328 326 327 325 325 323 319 315 310 306 302 291 286 283 281 271 266 266 276 222 201 243 112 166 62 258 354 268 189 227 233 210 197 205 231 226 232 209 218 228 204 240 225 213 256 222 189 308 278 258 240 302 293 314 299 292 185 211 226 214 253 270 227 178 166 137 194 179 190 226 228 312 60 48 99 127 145 184 188 147 162 161 157 158 159 162
329 329 327 324 324 324 321 321 317 313 310 304 298 284 283 276 297 298 263 230 222 232 223 250 268 278 266 260 286 231 194 198 198 180 184 185 219 284 292 243 173 240 201 248 224 233 138 251 110 216 326 229 284 337 174 231 211 246 343 349 308 276 244 242 158 182 147 158 181 195 201 252 254 189 217 158 139 148 187 193 187 161 159 165 158 160 163 165
328 328 324 323 320 321 320 318 318 313 311 308 284 272 270 258 243 231 297 151 148 50 347 228 153 136 16 226 220 247 116 122 154 53 202 205 180 267 293 300 286 194 234 193 282 191 192 288 83 350 294 270 236 213 204 224 102 3 342 205 265 280 300 285 231 166 179 174 176 162 197 231 267 210 202 177 167 159 193 186 184 165 156 164 164 158 164 171
328 325 324 319 319 315 317 316 317 315 319 327 337 272 291 15 43 350 217 243 234 233 256 188 203 266 312 256 187 93 125 109 271 191 261 196 198 190 268 266 265 282 274 189 241 209 148 186 210 222 234 227 241 237 249 298 98 50 42 8 321 337 339 349 39 25 71 119 200 179 190 216 262 233 229 275 288 170 170 201 180 180 165 164 166 169 166 177
326 326 322 319 315 315 312 317 315 314 307 301 290 333 340 6 20 12 223 215 218 238 252 262 215 221 227 282 130 173 158 201 241 181 220 149 219 132 200 219 268 270 260 247 217 268 145 184 241 228 223 209 171 118 77 24 9 38 77 30 336 339 302 304 260 96 13 121 230 179 179 241 246 290 298 150 210 214 185 199 212 178 180 174 167 173 168 178
326 322 321 317 315 313 314 312 309 294 272 247 256 254 273 310 119 243 46 293 255 239 236 244 245 236 246 254 115 348 298 222 197 241 201 152 181 164 190 194 184 237 244 249 301 33 228 206 240 239 236 157 137 103 102 83 18 350 69 71 356 298 293 331 31 29 11 54 311 10 357 298 300 293 294 299 177 232 226 187 199 198 180 182 175 178 183 169
325 323 320 316 314 314 315 308 300 294 202 189 197 228 228 312 25 7 343 286 274 261 249 238 244 240 255 267 231 141 237 255 220 207 173 181 157 190 179 191 198 226 245 205 213 169 237 260 240 236 138 198 247 83 73 48 38 82 357 42 229 271 323 307 322 51 43 84 296 329 335 292 300 305 289 263 264 211 219 214 212 203 186 176 179 177 178 189
321 319 318 315 315 317 309 313 298 258 205 211 266 261 295 40 45 23 37 242 291 295 238 205 224 211 228 207 163 210 203 240 262 186 135 160 208 161 221 242 247 210 230 206 211 194 206 213 198 163 163 104 264 319 58 65 341 322 322 214 264 297 279 321 242 319 124 347 180 337 349 324 291 281 281 274 246 242 216 220 220 220 192 185 169 153 169 177
320 319 317 315 318 313 313 317 324 238 209 187 232 256 317 72 41 44 48 295 258 255 327 334 183 43 16 27 96 5 170 255 225 103 144 188 204 179 224 213 237 233 235 225 211 222 236 217 129 130 138 161 213 335 307 114 356 309 271 240 240 241 275 285 146 41 27 332 293 188 355 295 255 248 253 258 276 253 210 197 208 211 207 182 173 179 170 168
319 317 317 317 317 319 309 344 245 321 257 240 273 53 346 62 42 1 86 33 329 279 39 214 94 231 37 169 119 246 308 277 161 144 164 193 257 252 42 306 185 246 247 277 256 201 217 175 154 168 146 173 159 188 234 122 207 120 274 230 234 252 263 265 272 25 25 180 278 131 200 267 309 284 247 264 235 239 213 185 200 201 203 204 201 197 193 185
318 316 318 319 321 324 358 290 347 309 356 34 4 2 24 53 21 13 60 359 4 248 190 11 82 6 105 180 189 114 341 290 40 110 177 104 237 82 154 254 321 276 274 27 36 307 34 117 82 75 86 139 196 187 226 166 158 258 256 246 244 220 234 252 250 166 225 207 300 192 151 215 297 282 274 237 254 226 227 202 183 191 204 202 203 203 201 203
319 317 323 324 322 298 117 323 326 342 2 352 14 343 15 35 19 34 78 50 301 275 160 159 277 48 298 176 205 249 196 210 343 236 57 91 82 27 72 280 271 287 304 320 254 252 143 189 118 130 211 269 217 191 225 176 180 206 237 250 254 291 1 339 224 109 191 351 290 283 216 268 255 268 286 280 243 250 238 219 210 202 189 198 204 204 205 202
319 324 330 332 306 256 226 243 329 263 346 19 13 351 351 0 10 76 99 106 234 168 276 83 295 178 233 186 221 196 277 190 185 177 142 134 160 137 199 240 273 292 284 238 214 279 232 165 177 170 159 213 208 256 243 182 211 244 192 245 25 2 345 14 6 40 359 262 273 262 207 225 276 276 292 284 276 250 224 218 205 199 206 186 192 206 207 199
327 334 342 337 317 149 165 216 242 253 317 23 3 334 341 360 46 45 33 284 19 239 220 154 119 204 220 204 214 197 238 188 192 179 174 146 181 115 222 195 263 304 315 340 325 232 232 246 149 154 184 200 235 256 242 238 206 190 123 48 11 8 299 315 99 32 27 300 263 245 245 204 275 258 229 255 226 264 230 183 192 201 198 196 190 187 177 191
328 334 343 344 3 357 319 238 267 321 14 354 345 333 5 19 115 95 122 243 179 297 326 133 221 170 178 201 230 192 218 216 196 156 192 118 225 177 287 319 304 323 346 340 304 293 300 292 42 207 109 14 239 286 278 263 172 129 104 136 41 329 336 339 332 91 213 265 261 255 263 229 233 298 280 257 289 314 111 168 188 182 182 188 195 195 183 169
326 322 312 318 286 347 264 303 314 311 4 336 358 356 25 22 25 132 234 67 66 275 75 308 312 331 314 277 312 174 210 210 195 173 166 169 185 176 201 192 172 221 308 274 280 304 299 279 199 211 165 186 217 272 306 296 297 99 62 44 79 290 35 318 143 247 203 221 244 236 230 292 257 228 251 279 274 291 329 127 149 161 218 208 193 192 186 161
324 319 303 252 252 244 234 264 306 332 352 348 358 2 46 79 312 237 244 289 248 220 209 224 256 235 317 2 304 296 287 267 67 163 201 195 184 202 188 189 174 160 213 243 245 173 271 244 256 239 179 177 175 163 267 308 275 137 153 140 121 209 237 255 252 207 254 278 307 284 315 260 255 287 242 259 260 232 229 224 176 170 173 193 211 198 179 163
316 316 331 276 257 261 284 304 279 293 337 344 29 351 34 19 254 278 284 357 343 305 335 18 337 356 226 213 243 250 291 248 145 203 174 298 59 147 235 216 209 209 187 224 203 216 14 347 265 237 267 157 189 185 180 197 193 208 172 159 181 164 155 218 211 233 217 220 269 328 16 231 282 241 293 309 294 296 297 238 256 211 208 167 192 172 162 164
309 277 241 282 246 254 244 250 262 236 343 5 7 120 97 236 235 303 37 345 354 1 350 352 326 337 318 293 282 258 236 294 148 5 294 237 256 311 258 281 260 266 126 50 261 65 248 232 236 209 221 159 195 204 195 246 292 239 197 178 131 215 181 234 185 195 270 346 335 301 193 241 217 275 306 306 316 319 329 322 120 267 258 105 140 160 172 178
341 295 140 255 245 236 223 225 252 75 37 5 35 22 205 268 288 1 100 290 14 352 337 330 296 287 263 281 287 292 4 96 355 52 322 296 219 218 215 200 226 204 175 195 167 295 9 263 306 335 245 222 213 182 191 156 228 289 332 217 217 186 178 236 341 59 88 37 262 181 308 305 304 313 279 285 293 276 293 297 313 184 232 355 136 125 115 120
336 325 292 252 216 160 171 247 43 46 6 46 47 263 242 281 352 344 68 29 11 347 327 6 298 6 329 311 337 339 10 331 5 106 273 321 329 272 266 314 335 184 189 132 351 188 179 251 302 329 317 305 310 174 110 163 159 198 246 257 266 240 140 132 219 222 188 214 259 140 230 292 354 295 310 350 316 287 279 295 2 356 360 237 211 154 140 143
320 279 270 274 40 19 6 34 45 12 36 22 243 236 291 267 260 48 60 42 7 13 336 319 267 284 302 334 323 344 338 354 314 277 272 152 252 4 9 1 13 19 56 76 111 286 81 351 308 327 312 311 321 329 301 264 198 209 223 228 283 13 348 308 86 276 180 229 274 279 205 245 194 252 313 288 308 341 337 9 311 16 61 13 300 312 151 162
256 323 310 310 349 42 341 35 30 2 355 330 256 297 243 237 7 50 64 42 23 352 310 306 324 355 1 323 329 339 333 322 360 330 31 350 333 313 289 199 314 52 71 77 63 338 45 218 292 333 320 332 328 351 291 307 324 270 344 338 251 127 172 127 187 202 134 244 290 293 213 244 196 227 263 307 22 339 6 23 17 16 32 35 9 6 21 16
316 317 264 269 282 19 30 46 35 349 336 244 247 247 312 331 23 351 22 50 100 73 259 311 314 321 326 314 347 318 327 325 342 302 312 219 266 217 8 73 7 352 67 95 88 64 331 30 272 304 342 350 311 340 274 322 319 328 332 310 360 176 170 116 49 110 168 204 197 237 317 278 266 205 88 13 324 12 34 35 34 38 38 47 43 23 16 28
300 198 260 243 236 276 140 50 30 260 221 241 234 283 25 2 345 349 342 38 167 190 206 283 304 271 295 347 321 331 312 325 323 312 311 331 354 324 333 7 355 14 20 25 64 14 44 9 212 305 346 301 264 294 318 327 343 336 326 290 247 261 303 303 280 27 85 96 240 53 263 267 249 313 316 11 311 49 25 41 47 44 40 41 42 46 35 31
347 333 255 230 248 153 36 12 274 213 231 277 286 32 327 160 300 324 342 322 317 301 214 238 245 294 333 259 280 280 295 287 300 315 299 307 348 63 338 47 42 51 46 44 105 265 143 212 76 278 221 244 273 298 302 302 301 294 270 266 287 245 107 108 186 268 97 233 176 179 165 272 234 195 331 337 7 14 29 35 29 38 36 23 28 21 15 21
343 287 280 258 231 44 1 307 294 3 338 353 343 325 1 346 344 346 333 325 300 2 352 2 359 16 344 342 335 331 325 294 319 278 311 328 324 173 172 106 45 20 89 16 56 333 34 76 350 287 280 275 279 266 257 258 270 287 311 351 6 293 183 165 175 185 161 203 172 144 184 265 304 61 67 32 348 33 30 41 29 15 11 15 10 4 4 4
304 289 304 288 25 34 62 279 341 323 319 340 7 343 355 342 331 313 284 294 298 9 359 329 325 299 294 315 288 279 310 336 243 318 301 329 284 89 70 55 126 54 104 210 130 252 26 294 107 322 338 339 339 323 300 350 35 81 276 291 315 2 79 233 156 187 170 210 185 160 242 269 253 22 352 348 15 16 25 22 23 12 358 354 354 349 352 348
284 260 226 335 5 54 52 295 149 275 312 353 9 346 340 327 311 301 322 280 5 333 6 298 287 321 294 348 322 326 311 271 298 304 296 296 288 294 287 171 121 163 153 170 143 144 118 203 105 260 260 280 275 172 304 350 326 319 325 322 317 324 323 23 32 31 125 277 220 174 241 256 283 331 14 16 355 2 10 5 2 15 357 349 341 342 337 337
339 337 312 340 358 351 12 348 350 14 20 16 354 302 312 301 302 326 337 340 95 279 197 333 327 355 327 338 315 310 315 333 326 330 324 303 287 290 339 341 209 121 142 141 118 88 152 187 131 170 187 233 210 236 302 351 326 316 307 303 290 291 295 295 144 241 240 234 256 229 222 291 303 304 312 326 29 2 353 352 350 347 348 342 338 325 317 310
291 60 341 325 322 1 346 345 9 34 339 343 322 317 298 303 291 294 101 285 28 331 312 134 322 326 296 324 295 293 293 298 299 309 303 310 297 305 334 357 1 118 140 148 138 103 105 183 218 211 236 243 257 273 287 295 281 285 295 289 285 277 353 25 349 250 218 359 292 257 189 289 278 285 282 34 31 353 320 302 321 339 331 333 310 297 300 301
20 313 42 337 242 290 359 326 347 331 322 330 273 305 283 298 330 317 324 288 305 252 333 21 80 336 323 306 305 291 271 267 254 268 311 327 346 355 345 346 352 235 237 331 122 142 156 185 241 199 246 244 244 252 253 257 257 260 258 262 272 294 342 299 266 257 259 213 245 261 221 235 269 275 286 347 287 264 243 267 265 270 276 276 285 294 290 291
48 317 10 35 15 318 313 293 302 285 286 293 280 276 288 282 280 290 282 258 57 360 10 312 237 232 279 304 299 272 20 37 336 350 37 335 4 351 336 336 331 4 335 313 343 236 348 221 216 208 260 262 269 289 281 267 273 280 278 275 286 324 300 275 267 266 247 249 245 260 276 248 245 276 316 305 296 360 262 262 288 288 291 317 326 309 317 320
14 357 328 351 318 289 286 308 303 297 264 257 271 252 280 275 293 287 288 348 20 352 9 7 335 341 356 339 345 23 73 160 175 287 334 2 339 341 300 236 300 326 348 327 334 306 101 269 54 261 278 278 249 247 262 279 279 271 270 278 305 303 285 274 279 289 301 293 290 321 326 297 271 122 308 293 287 244 313 313 285 253 300 331 345 334 330 329
326 336 323 305 315 292 307 311 314 314 316 304 267 273 275 318 291 21 346 358 356 342 339 315 6 355 341 310 312 321 142 172 154 183 286 6 266 318 340 309 342 311 316 316 315 312 25 264 327 294 292 280 185 257 264 274 279 277 278 304 306 280 280 268 251 236 243 252 273 311 301 284 294 284 279 287 307 351 358 351 356 334 351 1 356 342 330 321
339 324 342 359 295 300 323 297 279 313 282 293 341 294 304 9 353 11 354 326 334 322 12 22 352 351 352 0 338 342 350 335 312 279 220 214 215 283 281 291 289 281 290 298 328 313 38 359 351 338 297 266 155 305 308 329 348 296 282 232 228 244 245 254 267 252 232 231 267 265 249 243 262 294 332 330 342 337 11 50 32 5 340 354 337 319 307 299